Location: College Park
(38.9810°N, 76.9370°W)
Time: 13:21:15
(UTC-04:00)

Tiangong 2 - Visible Passes

Search period start: 22 October 2017 00:00
Search period end: 01 November 2017 00:00
Orbit: 388 x 391 km, 42.8° (Epoch: 22 October)

Date Brightness Start Highest point End Pass type
(mag) Time Alt. Az. Time Alt. Az. Time Alt. Az.
22 Oct 4.0 05:20:51 13° SSE 05:20:51 13° SSE 05:21:14 10° SE visible
28 Oct 3.5 19:18:08 10° SSE 19:19:13 11° SE 19:19:13 11° SE visible
29 Oct 2.7 19:54:46 10° SW 19:56:37 27° SSW 19:56:37 27° SSW visible
30 Oct 2.7 18:57:23 10° SSW 18:59:55 22° SE 19:01:35 15° ESE visible
30 Oct 4.3 20:33:20 10° WSW 20:33:55 14° WSW 20:33:55 14° WSW visible
31 Oct 1.0 19:35:23 10° WSW 19:38:33 70° SSE 19:38:47 65° ESE visible
